1491544800.23,6210,10.69,72612.3,-9.83,-11.63,-11.67,0,*63
1491544801.49,6211,10.69,72616.8,-9.81,-11.63,-11.63,0,*64
1491544802.73,6212,10.69,72614.8,-9.81,-11.81,-11.77,0,*6E
1491544803.97,6213,10.69,72612.8,-9.81,-11.89,-11.81,0,*6E
1491544805.22,6214,10.69,72618.0,-9.81,-11.67,-11.77,0,*60
1491544806.47,6215,10.69,72612.8,-9.81,-11.59,-11.59,0,*60
1491544807.69,6216,10.69,72612.3,-9.81,-11.45,-11.51,0,*66
1491544808.92,6217,10.69,72610.3,-9.81,-11.45,-11.51,0,*67
1491544810.16,6218,10.69,72608.0,-9.81,-11.37,-11.37,0,*6D
1491544811.38,6219,10.69,72606.5,-9.81,-11.23,-11.33,0,*6D
1491544812.61,6220,10.69,72610.8,-9.77,-11.19,-11.15,0,*63
1491544813.86,6221,10.69,72608.5,-9.79,-11.29,-11.29,0,*60
1491544815.12,6222,10.69,72608.3,-9.79,-11.63,-11.59,0,*6A
1491544816.37,6223,10.69,72604.8,-9.79,-11.59,-11.63,0,*6B
1491544817.62,6224,10.69,72600.5,-9.77,-12.03,-11.97,0,*65
1491544818.9,6225,10.69,72606.3,-9.77,-11.73,-11.73,0,*6A
1491544820.16,6226,10.69,72596.5,-9.79,-11.63,-11.63,0,*67
1491544821.41,6227,10.69,72606.3,-9.79,-11.59,-11.63,0,*6F
1491544822.66,6228,10.69,72606.0,-9.79,-11.63,-11.73,0,*68
1491544823.94,6229,10.69,72608.3,-9.77,-11.77,-11.85,0,*6B
1491544825.23,6230,10.69,72610.0,-9.77,-11.63,-11.63,0,*6E
1491544826.48,6231,10.69,72612.8,-9.77,-11.89,-12.03,0,*6E
1491544827.73,6232,10.69,72616.8,-9.79,-11.89,-11.97,0,*6D
1491544829.01,6233,10.69,72618.8,-9.77,-11.77,-11.73,0,*69
1491544830.29,6234,10.69,72622.8,-9.77,-11.77,-11.77,0,*6A
1491544831.54,6235,10.69,72620.5,-9.77,-11.89,-12.03,0,*6A
1491544832.77,6236,10.69,72622.0,-9.79,-12.03,-12.11,0,*65
1491544834.02,6237,10.69,72624.0,-9.77,-12.03,-12.15,0,*6E
1491544835.3,6238,10.69,72622.8,-9.77,-12.11,-12.11,0,*66
1491544836.58,6239,10.69,72626.5,-9.77,-11.85,-11.85,0,*67
1491544837.82,6240,10.69,72620.0,-9.79,-11.73,-11.77,0,*63
1491544839.1,6241,10.69,72618.8,-9.77,-11.77,-11.73,0,*6C
1491544840.38,6242,10.69,72620.5,-9.77,-11.63,-11.73,0,*6A
1491544841.66,6243,10.69,72622.8,-9.77,-11.85,-11.89,0,*66
1491544842.94,6244,10.69,72620.3,-9.77,-11.63,-11.59,0,*64
1491544844.22,6245,10.69,72622.5,-9.77,-11.55,-11.55,0,*6C
1491544845.48,6246,10.69,72620.3,-9.75,-11.59,-11.67,0,*60
1491544846.68,6247,10.69,72622.8,-9.75,-11.41,-11.41,0,*6C
1491544847.96,6248,10.69,72622.5,-9.77,-11.55,-11.59,0,*6D
1491544849.21,6249,10.69,72622.0,-9.75,-11.67,-11.81,0,*6A
1491544850.46,6250,10.69,72626.8,-9.75,-11.67,-11.67,0,*6A
1491544851.7,6251,10.69,72624.0,-9.75,-11.81,-11.85,0,*6F
1491544852.96,6252,10.69,72624.0,-9.75,-11.93,-11.97,0,*6C
1491544854.21,6253,10.69,72624.0,-9.75,-11.81,-11.93,0,*6A
1491544855.45,6254,10.69,72626.8,-9.75,-11.67,-11.81,0,*66
1491544856.73,6255,10.69,72628.8,-9.73,-11.67,-11.67,0,*69
1491544858.0,6256,10.69,72628.8,-9.73,-11.55,-11.59,0,*66
1491544859.28,6257,10.69,72626.5,-9.73,-11.55,-11.55,0,*6B
1491544860.53,6258,10.69,72630.5,-9.75,-11.67,-11.59,0,*6F
1491544861.81,6259,10.69,72632.3,-9.73,-11.59,-11.67,0,*68
1491544863.08,6260,10.69,72630.3,-9.73,-12.07,-12.07,0,*6F
1491544864.35,6261,10.69,72630.8,-9.73,-11.97,-11.97,0,*6E
1491544865.58,6262,10.69,72628.0,-9.73,-12.25,-12.25,0,*6D
1491544866.85,6263,10.69,72626.5,-9.73,-12.65,-12.65,0,*6C
1491544868.07,6264,10.69,72626.3,-9.73,-12.39,-12.39,0,*6B
1491544869.33,6265,10.69,72630.0,-9.75,-12.35,-12.35,0,*6C
1491544870.61,6266,10.69,72628.5,-9.77,-11.89,-11.89,0,*6D
1491544871.89,6267,10.69,72624.8,-9.77,-11.73,-11.63,0,*6D
1491544873.17,6268,10.69,72622.8,-9.77,-11.85,-11.85,0,*63
1491544874.45,6269,10.69,72628.8,-9.77,-11.55,-11.59,0,*6E
1491544875.69,6270,10.69,72626.8,-9.75,-11.81,-11.81,0,*68
1491544876.92,6271,10.69,72620.3,-9.75,-12.07,-12.21,0,*6D
1491544878.17,6272,10.69,72614.5,-9.75,-11.93,-11.93,0,*6A
1491544879.42,6273,10.69,72618.0,-9.75,-11.97,-11.97,0,*6B
1491544880.67,6274,10.69,72608.8,-9.75,-12.07,-11.97,0,*66
1491544881.91,6275,10.69,72618.0,-9.77,-12.29,-12.29,0,*6F
1491544883.18,6276,10.69,72618.5,-9.77,-13.01,-13.01,0,*6C
1491544884.39,6277,10.69,72618.5,-9.79,-13.23,-13.23,0,*63
1491544885.59,6278,10.69,72616.3,-9.79,-12.97,-13.11,0,*63
1491544886.83,6279,10.69,72612.5,-9.83,-13.01,-13.07,0,*6E
1491544888.03,6280,10.69,72616.8,-9.81,-13.07,-13.19,0,*63
1491544889.28,6281,10.69,72616.5,-9.83,-13.19,-13.33,0,*67
1491544890.53,6282,10.69,72610.3,-9.83,-13.01,-12.93,0,*66
1491544891.81,6283,10.69,72612.5,-9.87,-12.53,-12.53,0,*69
1491544893.04,6284,10.69,72616.8,-9.87,-12.39,-12.47,0,*67
1491544894.26,6285,10.69,72618.3,-9.87,-12.93,-12.93,0,*6F
1491544895.49,6286,10.69,72618.0,-9.87,-12.93,-12.97,0,*68
1491544896.74,6287,10.69,72620.0,-9.89,-12.53,-12.57,0,*67
1491544897.97,6288,10.69,72620.8,-9.89,-12.43,-12.57,0,*69
1491544899.2,6289,10.69,72618.8,-9.89,-12.75,-12.89,0,*6E
1491544900.46,6290,10.69,72616.8,-9.89,-12.71,-12.71,0,*65
1491544901.66,6291,10.69,72608.0,-9.89,-12.97,-12.97,0,*64
1491544902.89,6292,10.69,72618.8,-9.91,-13.23,-13.23,0,*6E
1491544904.12,6293,10.69,72618.0,-9.95,-13.07,-12.93,0,*67
1491544905.31,6294,10.69,72616.0,-9.97,-13.15,-13.15,0,*6E
1491544906.57,6295,10.69,72618.0,-9.91,-13.23,-13.29,0,*63
1491544907.81,6296,10.69,72618.0,-9.95,-12.93,-13.01,0,*64
1491544909.02,6297,10.69,72618.8,-9.97,-12.29,-12.21,0,*65
1491544910.23,6298,10.69,72616.3,-9.97,-12.43,-12.47,0,*66
1491544911.48,6299,10.69,72622.8,-9.97,-12.61,-12.61,0,*63
1491544912.76,6300,10.69,72622.0,-9.95,-12.75,-12.79,0,*6C
1491544914.04,6301,10.69,72618.0,-9.99,-12.71,-12.79,0,*65
1491544915.31,6302,10.69,72618.0,-9.99,-12.61,-12.61,0,*6E
1491544916.59,6303,10.69,72608.3,-9.99,-12.07,-11.97,0,*65
1491544917.86,6304,10.69,72608.8,-9.99,-11.85,-11.81,0,*6C
1491544919.14,6305,10.69,72608.0,-9.99,-11.63,-11.67,0,*6D
1491544920.41,6306,10.69,72614.8,-10.01,-11.55,-11.55,0,*53
1491544921.62,6307,10.69,72614.8,-9.97,-11.45,-11.45,0,*65
1491544922.82,6308,10.69,72620.8,-9.97,-11.23,-11.23,0,*6A
1491544924.11,6309,10.69,72624.5,-9.95,-11.59,-11.63,0,*60
1491544925.39,6310,10.69,72622.3,-9.95,-11.63,-11.63,0,*61
1491544926.66,6311,10.69,72622.0,-9.95,-11.63,-11.73,0,*61
1491544927.94,6312,10.69,72622.0,-9.95,-11.77,-11.77,0,*63
1491544929.22,6313,10.69,72614.8,-9.95,-11.63,-11.63,0,*62
1491544930.5,6314,10.69,72622.5,-9.95,-11.59,-11.59,0,*65
1491544931.77,6315,10.69,72622.3,-9.95,-11.77,-11.89,0,*65
1491544933.06,6316,10.69,72618.5,-9.95,-11.93,-12.07,0,*69
1491544934.31,6317,10.69,72622.5,-9.95,-11.89,-12.03,0,*67
1491544935.56,6318,10.69,72618.3,-9.89,-11.85,-11.97,0,*67
1491544936.83,6319,10.69,72622.5,-9.91,-11.73,-11.77,0,*68
1491544938.06,6320,10.69,72626.8,-9.89,-11.89,-12.03,0,*6E
1491544939.3,6321,10.69,72624.8,-9.89,-11.73,-11.77,0,*6A
1491544940.56,6322,10.69,72626.0,-9.89,-11.89,-11.89,0,*6D
1491544941.81,6323,10.69,72622.8,-9.89,-12.15,-12.11,0,*68
1491544943.06,6324,10.69,72624.5,-9.89,-11.85,-11.89,0,*67
1491544944.34,6325,10.69,72620.8,-9.91,-11.67,-11.59,0,*6E
1491544945.59,6326,10.69,72622.3,-9.89,-11.59,-11.59,0,*69
1491544946.85,6327,10.69,72622.0,-9.89,-11.59,-11.73,0,*60
1491544948.05,6328,10.69,72616.3,-9.89,-12.25,-12.25,0,*67
1491544949.33,6329,10.69,72608.8,-9.87,-11.93,-11.93,0,*68
1491544950.59,6330,10.69,72604.8,-9.85,-11.67,-11.67,0,*62
1491544951.87,6331,10.69,72608.0,-9.87,-11.63,-11.67,0,*65
1491544953.15,6332,10.69,72610.5,-9.87,-11.55,-11.63,0,*67
1491544954.4,6333,10.69,72620.5,-9.85,-11.63,-11.67,0,*65
1491544955.68,6334,10.69,72618.8,-9.87,-11.55,-11.73,0,*60
1491544956.95,6335,10.69,72620.0,-9.87,-11.55,-11.67,0,*64
1491544958.21,6336,10.69,72626.8,-9.85,-11.63,-11.73,0,*65
1491544959.46,6337,10.69,72628.5,-9.85,-11.67,-11.67,0,*65
1491544960.74,6338,10.69,72628.0,-9.83,-11.77,-11.93,0,*66
1491544961.96,6339,10.69,72626.5,-9.83,-12.03,-12.03,0,*6D
1491544963.2,6340,10.69,72626.8,-9.85,-11.81,-11.85,0,*61
1491544964.45,6341,10.69,72630.0,-9.85,-11.81,-11.93,0,*67
1491544965.71,6342,10.69,72626.5,-9.83,-12.29,-12.35,0,*6C
1491544966.98,6343,10.69,72626.8,-9.83,-12.35,-12.35,0,*60
1491544968.21,6344,10.69,72628.8,-9.83,-12.21,-12.29,0,*6F
1491544969.45,6345,10.69,72626.3,-9.85,-12.25,-12.35,0,*61
1491544970.67,6346,10.69,72630.0,-9.85,-12.71,-12.97,0,*6B
1491544971.88,6347,10.69,72622.5,-9.85,-12.93,-12.93,0,*62
1491544973.13,6348,10.69,72614.5,-9.87,-13.19,-13.33,0,*67
1491544974.36,6349,10.69,72614.0,-9.87,-13.51,-13.69,0,*65
1491544975.58,6350,10.69,72610.0,-9.87,-13.47,-13.65,0,*66
1491544976.8,6351,10.69,72608.3,-9.89,-13.55,-13.61,0,*6E
1491544978.03,6352,10.69,72596.0,-9.95,-13.15,-13.19,0,*6B
1491544979.3,6353,10.69,72594.3,-9.95,-12.61,-12.61,0,*66
1491544980.55,6354,10.69,72590.3,-9.91,-12.43,-12.53,0,*64
1491544981.78,6355,10.69,72586.5,-9.91,-12.89,-12.97,0,*6B
1491544983.0,6356,10.69,72602.8,-9.91,-13.11,-13.15,0,*63
1491544984.26,6357,10.69,72600.3,-9.95,-13.01,-13.19,0,*6B
1491544985.52,6358,10.69,72604.3,-9.95,-12.29,-12.35,0,*60
1491544986.78,6359,10.69,72602.8,-9.97,-11.93,-11.93,0,*6E
1491544988.06,6360,10.69,72596.3,-9.95,-11.77,-11.89,0,*67
1491544989.29,6361,10.69,72610.0,-9.97,-12.03,-12.07,0,*61
1491544990.55,6362,10.69,72608.3,-9.97,-11.63,-11.63,0,*66
1491544991.83,6363,10.69,72604.0,-9.95,-12.07,-12.15,0,*66
1491544993.05,6364,10.69,72598.0,-9.95,-12.47,-12.47,0,*62
1491544994.31,6365,10.69,72592.8,-9.95,-12.07,-12.21,0,*67
1491544995.56,6366,10.69,72612.0,-9.95,-11.89,-12.03,0,*61
1491544996.83,6367,10.69,72612.5,-9.95,-11.81,-11.93,0,*62
1491544998.09,6368,10.69,72608.0,-9.95,-11.93,-12.03,0,*64
1491544999.34,6369,10.69,72606.8,-9.95,-11.89,-12.03,0,*6E
1491545000.62,6370,10.69,72608.8,-9.95,-11.93,-12.15,0,*6A
1491545001.88,6371,10.69,72602.5,-9.91,-11.89,-12.03,0,*63
1491545003.15,6372,10.69,72606.8,-9.91,-11.73,-11.85,0,*68
1491545004.43,6373,10.69,72614.8,-9.91,-11.77,-11.97,0,*6E
1491545005.68,6374,10.69,72614.8,-9.89,-11.89,-12.11,0,*6C
1491545006.96,6375,10.69,72616.5,-9.91,-11.85,-11.97,0,*65
1491545008.21,6376,10.69,72620.5,-9.91,-11.85,-12.03,0,*68
1491545009.41,6377,10.69,72616.0,-9.89,-12.43,-12.43,0,*6D
1491545010.62,6378,10.69,72610.8,-9.89,-12.25,-12.29,0,*6E
1491545011.84,6379,10.69,72614.8,-9.89,-12.11,-12.25,0,*64
1491545013.09,6380,10.69,72616.8,-9.91,-12.03,-12.15,0,*6B
1491545014.3,6381,10.69,72616.3,-9.89,-12.25,-12.39,0,*69
1491545015.53,6382,10.69,72618.8,-9.89,-12.29,-12.53,0,*6A
1491545016.78,6383,10.69,72618.3,-9.91,-12.15,-12.25,0,*6C
1491545018.03,6384,10.69,72616.5,-9.91,-12.43,-12.53,0,*69
1491545019.31,6385,10.69,72614.8,-9.91,-12.53,-12.61,0,*68
1491545020.59,6386,10.69,72610.3,-9.91,-12.61,-12.57,0,*6F
1491545021.81,6387,10.69,72606.0,-9.91,-12.39,-12.29,0,*6A
1491545023.07,6388,10.69,72600.8,-9.91,-12.25,-12.15,0,*67
1491545024.35,6389,10.69,72596.3,-9.95,-11.89,-11.93,0,*6A
1491545025.63,6390,10.69,72600.8,-9.95,-11.89,-11.93,0,*62
1491545026.88,6391,10.69,72594.0,-9.91,-12.03,-12.11,0,*6F
1491545028.13,6392,10.69,72592.0,-9.91,-12.03,-12.11,0,*6C
1491545029.41,6393,10.69,72604.3,-9.95,-11.89,-11.93,0,*61
1491545030.68,6394,10.69,72604.8,-9.91,-11.67,-11.85,0,*65
1491545031.94,6395,10.69,72614.3,-9.89,-11.67,-11.89,0,*61
1491545033.17,6396,10.69,72622.5,-9.89,-12.11,-12.29,0,*69
1491545034.4,6397,10.69,72616.3,-9.91,-12.25,-12.43,0,*6A
1491545035.63,6398,10.69,72614.8,-9.89,-12.11,-12.29,0,*67
1491545036.91,6399,10.69,72616.8,-9.91,-12.53,-12.61,0,*65
1491545038.11,6400,10.69,72616.5,-9.89,-12.39,-12.43,0,*67
1491545039.34,6401,10.69,72618.8,-9.89,-12.15,-12.25,0,*68
1491545040.54,6402,10.69,72614.0,-9.89,-12.89,-12.97,0,*67
1491545041.76,6403,10.69,72612.0,-9.89,-12.83,-12.89,0,*63
1491545043.02,6404,10.69,72610.8,-9.89,-12.71,-12.75,0,*6A
1491545044.28,6405,10.69,72616.0,-9.89,-12.57,-12.71,0,*6B
1491545045.52,6406,10.69,72612.5,-9.89,-12.61,-12.83,0,*60
1491545046.77,6407,10.69,72608.3,-9.91,-12.83,-12.97,0,*61
1491545048.03,6408,10.69,72610.8,-9.91,-12.43,-12.53,0,*6A
1491545049.27,6409,10.69,72610.5,-9.91,-12.43,-12.57,0,*6F
1491545050.53,6410,10.69,72606.3,-9.91,-12.75,-12.89,0,*61
1491545051.78,6411,10.69,72602.8,-9.91,-13.23,-13.37,0,*66
1491545053.02,6412,10.69,72602.8,-9.95,-13.19,-13.19,0,*64
1491545054.25,6413,10.69,72600.3,-9.97,-12.75,-12.93,0,*6F
1491545055.49,6414,10.69,72592.5,-9.97,-12.75,-12.89,0,*63
1491545056.71,6415,10.69,72594.5,-9.97,-13.15,-13.29,0,*6E
1491545057.97,6416,10.69,72604.5,-9.97,-12.65,-12.75,0,*63
1491545059.2,6417,10.69,72608.0,-9.97,-12.15,-12.21,0,*64
1491545060.43,6418,10.69,72608.3,-9.95,-12.21,-12.29,0,*66
1491545061.68,6419,10.69,72614.0,-9.95,-12.43,-12.57,0,*6A
1491545062.93,6420,10.69,72614.8,-9.95,-12.03,-12.35,0,*60
1491545064.14,6421,10.69,72616.5,-9.97,-12.29,-12.43,0,*6A
1491545065.39,6422,10.69,72616.3,-9.95,-12.47,-12.75,0,*66
1491545066.64,6423,10.69,72612.5,-9.95,-12.61,-12.93,0,*6B
1491545067.89,6424,10.69,72618.5,-9.95,-12.75,-13.07,0,*65
1491545069.11,6425,10.69,72618.5,-9.95,-13.19,-13.47,0,*6B
1491545070.34,6426,10.69,72624.0,-9.97,-13.61,-13.93,0,*6C
1491545071.57,6427,10.69,72624.8,-9.97,-13.65,-14.01,0,*65
1491545072.8,6428,10.69,72618.8,-9.97,-13.73,-14.05,0,*69
1491545074.02,6429,10.69,72616.8,-9.97,-13.61,-13.93,0,*63
1491545075.3,6430,10.69,72622.8,-9.99,-13.61,-13.83,0,*64
1491545076.53,6431,10.69,72616.0,-10.01,-13.37,-13.65,0,*57
1491545077.76,6432,10.69,72616.3,-9.99,-13.51,-13.69,0,*61
1491545078.99,6433,10.69,72614.0,-10.01,-13.23,-13.37,0,*57
1491545080.2,6434,10.69,72618.3,-10.01,-12.97,-13.07,0,*5D
1491545081.47,6435,10.69,72616.0,-9.99,-12.61,-12.83,0,*61
1491545082.73,6436,10.69,72620.0,-9.99,-12.83,-13.19,0,*6C
1491545083.94,6437,10.69,72614.3,-10.01,-12.97,-13.23,0,*58
1491545085.18,6438,10.69,72616.0,-10.01,-12.71,-12.93,0,*55
1491545086.44,6439,10.69,72614.8,-10.01,-12.61,-12.83,0,*54
1491545087.69,6440,10.69,72612.8,-9.99,-12.47,-12.53,0,*6A
1491545088.98,6441,10.69,72616.5,-9.99,-12.53,-12.79,0,*66
1491545090.2,6442,10.69,72616.5,-9.97,-12.43,-12.57,0,*66
1491545091.43,6443,10.69,72616.5,-9.97,-12.43,-12.57,0,*67
1491545092.71,6444,10.69,72612.3,-9.95,-12.57,-12.75,0,*67
1491545093.98,6445,10.69,72606.3,-9.95,-12.35,-12.57,0,*62
1491545095.25,6446,10.69,72608.3,-9.95,-12.57,-12.65,0,*64
1491545096.5,6447,10.69,72618.8,-9.95,-12.47,-12.65,0,*64
1491545097.73,6448,10.69,72614.3,-9.91,-12.29,-12.39,0,*6E
1491545098.96,6449,10.69,72612.0,-9.89,-12.15,-12.43,0,*64
1491545100.16,6450,10.69,72614.0,-9.89,-12.29,-12.39,0,*6E
1491545101.42,6451,10.69,72616.0,-9.89,-12.11,-12.15,0,*6A
1491545102.69,6452,10.69,72614.0,-9.87,-12.07,-12.11,0,*64
1491545103.95,6453,10.69,72612.8,-9.85,-12.07,-12.07,0,*60
1491545105.2,6454,10.69,72616.3,-9.85,-11.93,-11.97,0,*63
1491545106.46,6455,10.69,72618.8,-9.85,-11.93,-11.97,0,*62
1491545107.72,6456,10.69,72616.8,-9.85,-11.93,-12.07,0,*6B
1491545108.96,6457,10.69,72616.8,-9.83,-12.03,-12.07,0,*66
1491545110.21,6458,10.69,72622.3,-9.81,-11.89,-11.89,0,*6F
1491545111.46,6459,10.69,72624.3,-9.79,-11.77,-11.85,0,*64
1491545112.69,6460,10.69,72622.3,-9.79,-11.97,-12.03,0,*6D
1491545113.94,6461,10.69,72620.5,-9.79,-11.85,-11.89,0,*6E
1491545115.22,6462,10.69,72624.5,-9.77,-11.73,-11.73,0,*6F
1491545116.5,6463,10.69,72620.8,-9.77,-11.89,-11.89,0,*6E
1491545117.77,6464,10.69,72626.3,-9.77,-11.73,-11.59,0,*61
1491545118.98,6465,10.69,72624.8,-9.75,-12.25,-12.25,0,*6A
1491545120.23,6466,10.69,72624.5,-9.73,-12.21,-12.11,0,*6C
1491545121.51,6467,10.69,72624.8,-9.73,-11.93,-11.81,0,*6D
1491545122.78,6468,10.69,72624.5,-9.73,-11.73,-11.73,0,*61
1491545124.05,6469,10.69,72622.8,-9.73,-11.85,-11.81,0,*64
1491545125.29,6470,10.69,72620.8,-9.71,-11.67,-11.67,0,*6A
1491545126.54,6471,10.69,72626.8,-9.71,-11.63,-11.67,0,*6F
1491545127.76,6472,10.69,72622.8,-9.67,-11.81,-12.03,0,*66
1491545129.01,6473,10.69,72626.8,-9.71,-11.89,-11.89,0,*69
1491545130.26,6474,10.69,72624.8,-9.67,-11.81,-11.89,0,*61
1491545131.51,6475,10.69,72626.0,-9.67,-11.93,-11.93,0,*68
1491545132.76,6476,10.69,72626.0,-9.65,-11.97,-12.03,0,*67
1491545134.03,6477,10.69,72620.3,-9.65,-11.97,-11.97,0,*68
1491545135.28,6478,10.69,72626.0,-9.63,-11.85,-11.85,0,*61
1491545136.55,6479,10.69,72620.8,-9.65,-11.85,-11.85,0,*66
1491545137.8,6480,10.69,72624.5,-9.63,-11.85,-11.89,0,*6A
1491545139.04,6481,10.69,72626.0,-9.59,-11.73,-11.73,0,*6E
1491545140.32,6482,10.69,72624.0,-9.61,-11.67,-11.67,0,*66
1491545141.6,6483,10.69,72624.8,-9.61,-11.59,-11.67,0,*6A
1491545142.88,6484,10.69,72622.3,-9.61,-11.55,-11.67,0,*61
1491545144.16,6485,10.69,72624.0,-9.61,-11.59,-11.67,0,*6C
1491545145.4,6486,10.69,72626.5,-9.59,-11.59,-11.81,0,*6C
1491545146.66,6487,10.69,72626.5,-9.55,-11.63,-11.67,0,*60
1491545147.93,6488,10.69,72624.3,-9.57,-11.51,-11.67,0,*6C
1491545149.18,6489,10.69,72628.8,-9.55,-11.55,-11.67,0,*6B
1491545150.44,6490,10.69,72630.3,-9.55,-11.55,-11.63,0,*67
1491545151.68,6491,10.69,72624.8,-9.55,-11.51,-11.51,0,*63
1491545152.93,6492,10.69,72628.8,-9.51,-11.51,-11.63,0,*65
1491545154.17,6493,10.69,72628.3,-9.51,-11.59,-11.77,0,*69
1491545155.42,6494,10.69,72628.0,-9.51,-11.63,-11.85,0,*6A
1491545156.66,6495,10.69,72624.8,-9.51,-11.73,-11.77,0,*67
1491545157.86,6496,10.69,72624.0,-9.51,-11.45,-11.45,0,*60
1491545159.08,6497,10.69,72624.3,-9.51,-11.33,-11.45,0,*60
1491545160.35,6498,10.69,72626.8,-9.49,-11.29,-11.33,0,*6C
1491545161.59,6499,10.69,72626.3,-9.45,-11.15,-11.15,0,*6A
1491545162.82,6500,10.63,72620.3,-9.45,-11.23,-11.15,0,*6E
1491545164.06,6501,10.69,72626.3,-9.45,-11.15,-11.15,0,*6A
1491545165.29,6502,10.69,72624.8,-9.45,-11.11,-11.23,0,*68
1491545166.52,6503,10.69,72620.5,-9.45,-11.11,-11.15,0,*6C
1491545167.76,6504,10.69,72620.5,-9.45,-10.89,-11.01,0,*6E
1491545168.99,6505,10.69,72622.8,-9.45,-10.89,-10.85,0,*62
1491545170.22,6506,10.69,72622.8,-9.43,-10.79,-10.85,0,*68
1491545171.48,6507,10.69,72618.5,-9.41,-10.79,-10.93,0,*6C
1491545172.78,6508,10.69,72616.5,-9.41,-11.07,-11.07,0,*67
1491545174.04,6509,10.69,72622.0,-9.41,-11.19,-11.29,0,*65
1491545175.27,6510,10.69,72620.5,-9.41,-11.11,-11.19,0,*66
1491545176.56,6511,10.69,72612.3,-9.41,-11.37,-11.55,0,*6B
1491545177.86,6512,10.69,72618.3,-9.41,-11.29,-11.29,0,*6C
1491545179.1,6513,10.69,72616.0,-9.41,-10.97,-11.11,0,*62
1491545180.31,6514,10.69,72616.5,-9.39,-11.23,-11.19,0,*6C
1491545181.57,6515,10.69,72620.5,-9.39,-11.07,-11.07,0,*64
1491545182.78,6516,10.69,72622.0,-9.39,-10.93,-11.01,0,*6D
1491545183.99,6517,10.69,72620.0,-9.39,-11.01,-11.01,0,*66
1491545185.24,6518,10.69,72620.3,-9.37,-11.01,-11.01,0,*67
1491545186.48,6519,10.69,72620.0,-9.37,-11.01,-11.01,0,*66
1491545187.72,6520,10.69,72620.3,-9.37,-10.93,-10.89,0,*67
1491545189.02,6521,10.69,72616.3,-9.37,-10.67,-10.75,0,*6E
1491545190.31,6522,10.69,72612.8,-9.37,-10.79,-10.79,0,*6E
1491545191.6,6523,10.69,72610.8,-9.37,-10.75,-10.75,0,*6F
1491545192.89,6524,10.69,72612.3,-9.37,-10.79,-10.79,0,*68
1491545194.1,6525,10.69,72614.5,-9.35,-10.45,-10.49,0,*67
1491545195.31,6526,10.69,72608.5,-9.35,-10.57,-10.57,0,*68
1491545196.55,6527,10.69,72606.5,-9.35,-10.57,-10.63,0,*6E
1491545197.77,6528,10.69,72604.5,-9.35,-10.35,-10.49,0,*6D
1491545199.0,6529,10.69,72604.3,-9.33,-10.89,-10.89,0,*61
1491545200.29,6530,10.69,72604.5,-9.33,-10.75,-10.75,0,*69
1491545201.58,6531,10.69,72604.5,-9.33,-10.71,-10.71,0,*68
1491545202.87,6532,10.69,72608.3,-9.33,-10.75,-10.75,0,*6B
1491545204.13,6533,10.69,72608.0,-9.31,-10.71,-10.79,0,*60
1491545205.4,6534,10.69,72610.8,-9.31,-10.71,-10.71,0,*6F
1491545206.61,6535,10.69,72610.5,-9.31,-10.93,-10.93,0,*6E
1491545207.85,6536,10.69,72612.8,-9.31,-10.79,-10.93,0,*69
1491545209.08,6537,10.69,72608.5,-9.31,-10.57,-10.79,0,*60
1491545210.35,6538,10.69,72614.8,-9.31,-10.71,-10.71,0,*63
1491545211.58,6539,10.69,72616.0,-9.31,-11.23,-11.37,0,*67
1491545212.8,6540,10.69,72612.8,-9.31,-11.23,-11.41,0,*68
1491545214.06,6541,10.69,72614.0,-9.31,-11.77,-11.77,0,*6D
1491545215.32,6542,10.69,72612.3,-9.31,-11.97,-12.07,0,*64
1491545216.56,6543,10.69,72618.0,-9.33,-12.25,-12.29,0,*61
1491545217.79,6544,10.69,72616.5,-9.33,-12.39,-12.43,0,*67
1491545219.06,6545,10.69,72612.5,-9.35,-11.93,-11.93,0,*6D
1491545220.32,6546,10.69,72612.8,-9.35,-11.67,-11.81,0,*66
1491545221.56,6547,10.69,72620.5,-9.35,-11.15,-11.29,0,*60
1491545222.77,6548,10.69,72622.0,-9.35,-11.01,-11.11,0,*61
1491545224.03,6549,10.69,72618.5,-9.35,-11.73,-11.85,0,*68
1491545225.29,6550,10.69,72620.3,-9.35,-11.67,-11.67,0,*69
1491545226.56,6551,10.69,72614.5,-9.35,-11.55,-11.85,0,*65
1491545227.82,6552,10.69,72616.0,-9.37,-12.43,-12.57,0,*6C
1491545229.05,6553,10.69,72614.0,-9.39,-12.35,-12.43,0,*67
1491545230.29,6554,10.69,72614.8,-9.39,-12.07,-12.21,0,*65
1491545231.55,6555,10.69,72618.0,-9.39,-12.75,-12.83,0,*69
1491545232.81,6556,10.69,72616.8,-9.43,-12.79,-12.75,0,*62
1491545234.05,6557,10.69,72620.0,-9.43,-12.35,-12.25,0,*6E
1491545235.32,6558,10.69,72620.8,-9.41,-12.21,-12.11,0,*61
1491545236.56,6559,10.69,72618.5,-9.43,-12.39,-12.35,0,*6D
1491545237.78,6560,10.69,72616.0,-9.43,-12.21,-12.21,0,*6B
1491545239.03,6561,10.69,72618.0,-9.49,-12.57,-12.43,0,*65
1491545240.3,6562,10.69,72614.8,-9.49,-12.83,-12.71,0,*6E
1491545241.57,6563,10.69,72614.0,-9.49,-12.83,-12.83,0,*62
1491545242.82,6564,10.69,72612.0,-9.49,-12.83,-12.93,0,*64
1491545244.1,6565,10.69,72614.3,-9.53,-12.71,-12.71,0,*6F
1491545245.33,6566,10.69,72614.0,-9.53,-12.47,-12.47,0,*6C
1491545246.6,6567,10.69,72614.5,-9.53,-12.11,-12.15,0,*69
1491545247.87,6568,10.69,72612.8,-9.57,-12.15,-12.15,0,*66
1491545249.12,6569,10.69,72612.0,-9.55,-12.07,-12.07,0,*65
1491545250.33,6570,10.69,72612.8,-9.55,-11.41,-11.41,0,*6D
1491545251.53,6571,10.69,72604.3,-9.55,-11.11,-11.23,0,*6D
1491545252.77,6572,10.69,72596.0,-9.53,-11.19,-11.33,0,*61
1491545254.04,6573,10.69,72594.5,-9.53,-11.51,-11.59,0,*60
1491545255.31,6574,10.69,72594.8,-9.53,-11.29,-11.33,0,*64
1491545256.56,6575,10.69,72608.0,-9.55,-11.33,-11.37,0,*6C
1491545257.83,6576,10.69,72614.5,-9.53,-11.29,-11.33,0,*66
1491545259.09,6577,10.69,72628.3,-9.53,-11.29,-11.19,0,*6F
1491545260.36,6578,10.69,72618.5,-9.53,-11.33,-11.33,0,*63
1491545261.61,6579,10.69,72616.3,-9.53,-11.45,-11.37,0,*67
1491545262.89,6580,10.69,72614.0,-9.53,-11.33,-11.29,0,*6F
1491545264.11,6581,10.69,72600.3,-9.53,-11.19,-11.19,0,*65
1491545265.38,6582,10.69,72596.5,-9.53,-11.29,-11.33,0,*6D
1491545266.66,6583,10.69,72592.5,-9.53,-11.51,-11.59,0,*6F
1491545267.91,6584,10.69,72598.0,-9.55,-11.63,-11.63,0,*66
1491545269.15,6585,10.69,72600.8,-9.53,-11.45,-11.45,0,*61
1491545270.43,6586,10.69,72604.5,-9.53,-11.59,-11.63,0,*6B
1491545271.7,6587,10.69,72610.0,-9.53,-11.73,-11.73,0,*63
1491545272.98,6588,10.69,72610.3,-9.53,-11.59,-11.63,0,*65
1491545274.25,6589,10.69,72610.3,-9.53,-11.73,-11.77,0,*69
1491545275.5,6590,10.69,72612.5,-9.53,-11.45,-11.51,0,*60
1491545276.78,6591,10.69,72616.3,-9.53,-11.63,-11.73,0,*65
1491545278.05,6592,10.69,72616.5,-9.53,-11.37,-11.51,0,*67
1491545279.31,6593,10.69,72614.5,-9.53,-11.97,-12.03,0,*68
1491545280.57,6594,10.69,72610.0,-9.53,-11.73,-11.77,0,*65
1491545281.85,6595,10.69,72620.3,-9.53,-11.59,-11.67,0,*6D
1491545283.1,6596,10.69,72616.0,-9.55,-11.37,-11.33,0,*61
1491545284.32,6597,10.69,72616.3,-9.55,-11.41,-11.55,0,*61
1491545285.58,6598,10.69,72614.8,-9.53,-11.45,-11.51,0,*68
1491545286.82,6599,10.69,72614.5,-9.55,-11.37,-11.51,0,*6A
1491545288.04,6600,10.69,72612.0,-9.55,-11.23,-11.33,0,*68
1491545289.24,6601,10.69,72610.8,-9.55,-11.11,-11.23,0,*69
1491545290.49,6602,10.69,72612.3,-9.51,-11.07,-11.07,0,*6F
1491545291.74,6603,10.69,72614.8,-9.53,-11.15,-11.29,0,*63
1491545293.01,6604,10.69,72614.3,-9.53,-11.33,-11.33,0,*6B
1491545294.3,6605,10.69,72610.0,-9.53,-11.63,-11.63,0,*6A
1491545295.57,6606,10.69,72610.3,-9.53,-11.51,-11.59,0,*61
1491545296.8,6607,10.69,72608.5,-9.51,-11.45,-11.59,0,*67
1491545298.04,6608,10.69,72610.8,-9.51,-11.33,-11.33,0,*65
1491545299.28,6609,10.69,72612.3,-9.53,-11.19,-11.29,0,*65
1491545300.51,6610,10.69,72614.8,-9.51,-11.45,-11.51,0,*69
1491545301.73,6611,10.69,72618.8,-9.51,-11.45,-11.51,0,*68
1491545303.02,6612,10.69,72612.5,-9.53,-11.63,-11.63,0,*6C
1491545304.27,6613,10.69,72618.0,-9.51,-11.63,-11.63,0,*6F
1491545305.52,6614,10.69,72620.5,-9.51,-11.59,-11.59,0,*68
1491545306.76,6615,10.69,72622.3,-9.51,-11.89,-11.89,0,*69
1491545308.01,6616,10.69,72618.8,-9.51,-11.97,-11.89,0,*65